Weather History for KD57 - December, 2013

Change the Weather History Date:

Wednesday, December 25, 2013

  Actual Average (KDIK) Record (KDIK)
Temperature  
Mean Temperature 28 °F 16 °F  
Max Temperature 32 °F 26 °F 51 °F (2005)
Min Temperature 23 °F 6 °F -29 °F (1996)
Degree Days  
Heating Degree Days 38 49  
Month to date heating degree days 1165  
Since 1 July heating degree days 3242  
Cooling Degree Days 0 0  
Month to date cooling degree days 0  
Year to date cooling degree days 419  
Moisture  
Dew Point 22 °F    
Average Humidity 80    
Maximum Humidity 93    
Minimum Humidity 69    
Precipitation  
Precipitation 0.00 in 0.01 in 0.17 in (1950)
Month to date precipitation 0.19  
Year to date precipitation 15.72  
Sea Level Pressure  
Sea Level Pressure 30.08 in    
Wind  
Wind Speed 16 mph (WNW)    
Max Wind Speed 26 mph    
Max Gust Speed 34 mph    
Visibility 9 miles    
Events Rain , Snow    
T = Trace of Precipitation, MM = Missing Value Source: NWS Daily Summary

Daily Weather History Graph

Daily Weather History Graph

Search for Another Location

Airport or City:

Trip Planner

Search our weather history database for the weather conditions in past years. The results will help you decide how hot, cold, wet, or windy it might be!

Date:

Astronomy

Dec. 25, 2013 Rise Set
Actual Time 7:31 AM MST 4:04 PM MST
Civil Twilight 6:56 AM MST 4:39 PM MST
Nautical Twilight 6:17 AM MST 5:18 PM MST
Astronomical Twilight 5:40 AM MST 5:55 PM MST
Moon No Moon Rise 11:28 AM MST (12/25)
Length of Visible Light 9h 43m
Length of Day
8h 32m
Waning Gibbous, 48% of the Moon is Illuminated
Dec 25
Waning Gibbous
Jan 1
New
Jan 7
First Quarter
Jan 15
Full
Jan 23
Last Quarter

Hourly Weather History & Observations

Time (MST) Temp. Windchill Dew Point Humidity Pressure Visibility Wind Dir Wind Speed Gust Speed Precip Events Conditions
12:15 AM 30.2 °F 19.8 °F 28.4 °F 93% 30.01 in 3.0 mi WNW 13.8 mph - N/A Snow Light Snow
12:35 AM 32.0 °F 20.5 °F 28.4 °F 87% 30.02 in 4.0 mi NW 18.4 mph - N/A Snow Light Snow
12:55 AM 32.0 °F 19.8 °F 28.4 °F 87% 30.03 in 9.0 mi NW 20.7 mph - N/A   Overcast
1:15 AM 30.2 °F 16.5 °F 28.4 °F 93% 30.04 in 6.0 mi NW 24.2 mph - N/A   Overcast
1:35 AM 30.2 °F 17.8 °F 28.4 °F 93% 30.05 in 8.0 mi NW 19.6 mph 26.5 mph N/A   Overcast
1:55 AM 30.2 °F 18.1 °F 28.4 °F 93% 30.06 in 10.0 mi NW 18.4 mph - N/A   Overcast
2:15 AM 30.2 °F 18.1 °F 28.4 °F 93% 30.07 in 8.0 mi WNW 18.4 mph - N/A Rain Light Freezing Rain
2:35 AM 30.2 °F 17.1 °F 26.6 °F 86% 30.07 in 5.0 mi NW 21.9 mph 28.8 mph N/A Rain Light Freezing Rain
2:55 AM 30.2 °F 15.9 °F 24.8 °F 80% 30.08 in 5.0 mi NW 26.5 mph - N/A   Mostly Cloudy
3:15 AM 28.4 °F 13.5 °F 24.8 °F 86% 30.09 in 3.0 mi NW 26.5 mph 34.5 mph N/A   Haze
3:35 AM 28.4 °F 13.5 °F 24.8 °F 86% 30.10 in 3.0 mi NW 26.5 mph 34.5 mph N/A   Overcast
3:55 AM 28.4 °F 14.4 °F 24.8 °F 86% 30.11 in 5.0 mi NW 23.0 mph 31.1 mph N/A   Haze
4:15 AM 28.4 °F 14.1 °F 24.8 °F 86% 30.12 in 4.0 mi NW 24.2 mph - N/A   Haze
4:35 AM 28.4 °F 14.4 °F 24.8 °F 86% 30.13 in 6.0 mi NW 23.0 mph 31.1 mph N/A   Haze
4:55 AM 26.6 °F 13.1 °F 23.0 °F 86% 30.13 in 10.0 mi NW 19.6 mph 27.6 mph N/A   Mostly Cloudy
5:15 AM 24.8 °F 11.1 °F 21.2 °F 86% 30.14 in 10.0 mi NW 18.4 mph - N/A   Partly Cloudy
5:35 AM 26.6 °F 13.8 °F 21.2 °F 80% 30.15 in 10.0 mi NW 17.3 mph - N/A   Mostly Cloudy
5:55 AM 26.6 °F 13.8 °F 21.2 °F 80% 30.15 in 10.0 mi NW 17.3 mph - N/A   Mostly Cloudy
6:15 AM 24.8 °F 11.1 °F 21.2 °F 86% 30.16 in 10.0 mi NW 18.4 mph - N/A   Overcast
6:35 AM 24.8 °F 10.7 °F 19.4 °F 80% 30.16 in 10.0 mi NW 19.6 mph - N/A   Mostly Cloudy
6:55 AM 24.8 °F 11.1 °F 21.2 °F 86% 30.17 in 10.0 mi NW 18.4 mph - N/A   Overcast
7:15 AM 24.8 °F 10.0 °F 19.4 °F 80% 30.17 in 10.0 mi WNW 21.9 mph - N/A   Mostly Cloudy
7:35 AM 24.8 °F 11.1 °F 19.4 °F 80% 30.17 in 10.0 mi WNW 18.4 mph 25.3 mph N/A   Clear
7:55 AM 23.0 °F 9.6 °F 17.6 °F 80% 30.18 in 10.0 mi WNW 16.1 mph - N/A   Clear
8:15 AM 23.0 °F 11.1 °F 19.4 °F 86% 30.19 in 10.0 mi WNW 12.7 mph - N/A   Mostly Cloudy
8:35 AM 24.8 °F 14.0 °F 21.2 °F 86% 30.20 in 10.0 mi NW 11.5 mph - N/A   Overcast
8:55 AM 24.8 °F 13.4 °F 19.4 °F 80% 30.19 in 10.0 mi NW 12.7 mph - N/A   Overcast
9:15 AM 24.8 °F 12.4 °F 21.2 °F 86% 30.20 in 10.0 mi NW 15.0 mph - N/A   Overcast
9:35 AM 24.8 °F 12.9 °F 21.2 °F 86% 30.20 in 10.0 mi NW 13.8 mph - N/A   Overcast
9:55 AM 24.8 °F 15.3 °F 19.4 °F 80% 30.20 in 10.0 mi NW 9.2 mph - N/A   Overcast
10:15 AM 24.8 °F 19.1 °F 21.2 °F 86% 30.20 in 10.0 mi WNW 4.6 mph - N/A   Overcast
10:35 AM 26.6 °F 14.3 °F 21.2 °F 80% 30.19 in 10.0 mi WNW 16.1 mph - N/A   Overcast
10:55 AM 28.4 °F 18.5 °F 21.2 °F 74% 30.18 in 10.0 mi WNW 11.5 mph 17.3 mph N/A   Mostly Cloudy
11:15 AM 28.4 °F 18.5 °F 21.2 °F 74% 30.17 in 10.0 mi West 11.5 mph 17.3 mph N/A   Partly Cloudy
11:35 AM 26.6 °F 15.7 °F 19.4 °F 74% 30.16 in 10.0 mi West 12.7 mph - N/A   Clear
11:55 AM 26.6 °F 16.2 °F 19.4 °F 74% 30.15 in 10.0 mi West 11.5 mph - N/A   Mostly Cloudy
12:15 PM 26.6 °F 16.2 °F 21.2 °F 80% 30.14 in 10.0 mi West 11.5 mph - N/A   Overcast
12:35 PM 26.6 °F 16.8 °F 21.2 °F 80% 30.13 in 10.0 mi West 10.4 mph - N/A   Overcast
12:55 PM 30.2 °F 20.8 °F 23.0 °F 75% 30.12 in 10.0 mi West 11.5 mph - N/A   Mostly Cloudy
1:15 PM 30.2 °F 19.8 °F 21.2 °F 69% 30.11 in 10.0 mi West 13.8 mph - N/A   Mostly Cloudy
1:35 PM 28.4 °F 18.5 °F 21.2 °F 74% 30.11 in 10.0 mi West 11.5 mph - N/A   Overcast
1:55 PM 28.4 °F 19.1 °F 21.2 °F 74% 30.10 in 10.0 mi West 10.4 mph - N/A   Overcast
2:15 PM 26.6 °F 18.2 °F 19.4 °F 74% 30.09 in 10.0 mi WSW 8.1 mph - N/A   Overcast
2:35 PM 28.4 °F 19.7 °F 21.2 °F 74% 30.09 in 10.0 mi West 9.2 mph - N/A   Overcast
2:55 PM 28.4 °F 17.0 °F 21.2 °F 74% 30.08 in 10.0 mi West 15.0 mph - N/A   Overcast
3:15 PM 28.4 °F 17.5 °F 21.2 °F 74% 30.08 in 10.0 mi West 13.8 mph - N/A   Partly Cloudy
3:35 PM 28.4 °F 18.0 °F 23.0 °F 80% 30.07 in 10.0 mi West 12.7 mph - N/A   Mostly Cloudy
3:55 PM 28.4 °F 18.5 °F 21.2 °F 74% 30.07 in 10.0 mi West 11.5 mph - N/A   Overcast
4:15 PM 28.4 °F 16.6 °F 21.2 °F 74% 30.07 in 10.0 mi West 16.1 mph - N/A   Overcast
4:35 PM 26.6 °F 15.7 °F 21.2 °F 80% 30.06 in 10.0 mi WSW 12.7 mph - N/A   Overcast
4:55 PM 26.6 °F 16.8 °F 19.4 °F 74% 30.06 in 10.0 mi West 10.4 mph - N/A   Overcast
5:15 PM 28.4 °F 17.0 °F 21.2 °F 74% 30.05 in 10.0 mi West 15.0 mph - N/A   Overcast
5:35 PM 26.6 °F 15.2 °F 21.2 °F 80% 30.05 in 10.0 mi WSW 13.8 mph - N/A   Overcast
5:55 PM 26.6 °F 15.7 °F 21.2 °F 80% 30.03 in 10.0 mi WSW 12.7 mph - N/A   Overcast
6:15 PM 26.6 °F 15.7 °F 19.4 °F 74% 30.02 in 10.0 mi WSW 12.7 mph - N/A   Overcast
6:35 PM 26.6 °F 16.2 °F 19.4 °F 74% 30.02 in 10.0 mi WSW 11.5 mph - N/A   Overcast
6:55 PM 24.8 °F 16.9 °F 19.4 °F 80% 30.01 in 10.0 mi West 6.9 mph - N/A   Overcast
7:15 PM 26.6 °F 18.2 °F 19.4 °F 74% 30.02 in 10.0 mi WNW 8.1 mph - N/A   Mostly Cloudy
7:35 PM 26.6 °F 19.1 °F 19.4 °F 74% 30.00 in 10.0 mi WNW 6.9 mph - N/A   Overcast
7:55 PM 24.8 °F 14.6 °F 19.4 °F 80% 30.00 in 10.0 mi West 10.4 mph - N/A   Overcast
8:15 PM 23.0 °F 15.8 °F 17.6 °F 80% 29.99 in 10.0 mi NNW 5.8 mph - N/A   Overcast
8:35 PM 24.8 °F - 17.6 °F 74% 29.98 in 10.0 mi Calm Calm - N/A   Overcast
8:55 PM 26.6 °F 15.2 °F 19.4 °F 74% 29.96 in 10.0 mi WSW 13.8 mph - N/A   Overcast
9:15 PM 26.6 °F 15.2 °F 19.4 °F 74% 29.95 in 10.0 mi WSW 13.8 mph - N/A   Overcast
9:35 PM 26.6 °F 16.8 °F 19.4 °F 74% 29.96 in 10.0 mi WSW 10.4 mph - N/A   Overcast
9:55 PM 26.6 °F - 19.4 °F 74% 29.97 in 10.0 mi Calm Calm - N/A   Overcast
10:15 PM 26.6 °F 22.6 °F 19.4 °F 74% 29.96 in 10.0 mi SW 3.5 mph - N/A   Overcast
10:35 PM 26.6 °F 20.0 °F 19.4 °F 74% 29.95 in 10.0 mi SW 5.8 mph - N/A   Overcast
10:55 PM 26.6 °F - 19.4 °F 74% 29.94 in 10.0 mi Calm Calm - N/A   Overcast
11:15 PM 26.6 °F 20.0 °F 19.4 °F 74% 29.94 in 10.0 mi West 5.8 mph - N/A   Overcast
11:35 PM 26.6 °F 20.0 °F 21.2 °F 80% 29.94 in 10.0 mi WNW 5.8 mph - N/A   Overcast
11:55 PM 28.4 °F 23.3 °F 21.2 °F 74% 29.93 in 10.0 mi WNW 4.6 mph - N/A   Overcast